Starlink 3946

operational
NORAD ID: 52693 Int'l Des: 2022-053 Owner: SPXS Country: US Constellation: starlink
LEOCIRCULAR

关于 Starlink 3946

正在加载描述...

实时位置

正在加载3D地球...

即将过境

高度历史

Altitude vs Time

uPlot chart will show altitude changes over time

两行轨道根数

1 52693U 22053AP 25307.84704825 .00000807 00000-0 68780-4 0 9990
2 52693 53.2176 349.0491 0001484 86.1415 273.9747 15.08843332192157
Epoch: Nov 3, 2025 • Age: 13 hours

当前状态

高度 542.1 km
速度 7.60 km/s
星下点 37.76°N, 161.08°W
发射日期 May 18, 2022
运行时间 3.4 years
类型 internet

技术详情

分类 Payload
质量 297.00 kg
干质量 275.00 kg
总质量 297.00 kg
长度 0.20 m
直径 2.80 m
跨度 9.00 m
形状 Box + pan
制造商 SPXS
平台类型 Starlink
阶段状态 In Orbit
所有者/国家 SPXS/US

大型星座

Loading constellations...